"Pseudo-MPEC" for P21JI5Z

Created 2023 Sep 27 0:22:16 UT using Find_Orb

Click here for an explanation of pseudo-MPECs

 
 Astrometry: 
     P21JI5Z* C2023 09 160ZXAstrometry9redacted;:f+clickZ1here@#`GX19jeU;ebgEF52
     P21JI5Z  C2023 09 16Dk1)I:P\-jH8%Y3(?4DwE^Bd9]*U$Oo;]1dQ;_,IQ1(dmR7foryRF52
     P21JI5Z  C2023 09 16OApBXR\P,Rki=/AexplanationY0Z?31*oPwq(hK4rF+n%+Fa5RmF52

Station data:
(F52) Pan-STARRS 2, Haleakala  (N20.707382 W156.255910)  US/Hawaii.
   Observers J. Bulger, T. Dukes, T. Lowe, A. Schultz, M. Willman. Measurers
   K. Chambers, S. Chastel, T. de Boer, L. Denneau, J. Fairlamb, H.
   Flewelling, M. Huber, C.-C. Lin, E. Magnier, Y. Ramanjooloo, R. Wainscoat,
   R. Weryk. 1.8-m Ritchey-Chrétien + CCD.

Orbital elements:  P21JI5Z
   Perihelion 2023 Sep 12.81447 +/- 58.7 TT = 19:32:50 (JD 2460200.31447)
Epoch 2023 Sep 16.0 TT = JDT 2460203.5   Earth MOID: 0.6740      AutoNEOCP
M   0.79424672 +/- 26               (J2000 ecliptic)
n   0.24932975 +/- 0.275            Peri.  267.00285 +/- 100
a   2.50007654 +/- 1.84             Node    73.53930 +/- 45
e   0.3513692 +/- 0.253             Incl.   12.68053 +/- 8
P   3.95                   H 20.35  G  0.15   U 11.9  SR
q 1.62162648 +/- 0.643    Q 3.37852660 +/- 138
From 3 observations 2023 Sept. 16 (38.5 min); mean residual 0".04
Residuals in arcseconds: 
230916 F52  .04+  .02+    230916 F52  .07-  .03-    230916 F52  .02+  .01+    

Ephemerides (geocentric):
Date (UTC) HH   RA             Dec           delta  r     elong  mag " sig PA
---- --------  ------------   ------------  ------ ------ -----  --- --------
2023 09 27 00  22 40 01.734   -38 52 11.01  .75668 1.6256 134.6 22.0 754' 144
2023 09 27 01  22 40 01.760   -38 51 38.40  .75687 1.6256 134.6 22.0 775' 143
2023 09 27 02  22 40 01.790   -38 51 05.74  .75706 1.6256 134.5 22.0 795' 142
2023 09 27 03  22 40 01.824   -38 50 33.03  .75725 1.6257 134.5 22.0 813' 140
2023 09 27 04  22 40 01.860   -38 50 00.27  .75744 1.6257 134.5 22.0 829' 139
2023 09 27 05  22 40 01.901   -38 49 27.47  .75762 1.6257 134.5 22.0 844' 138
2023 09 27 06  22 40 01.945   -38 48 54.63  .75781 1.6257 134.4 22.0 857' 137
2023 09 27 07  22 40 01.992   -38 48 21.73  .75800 1.6258 134.4 22.0 869' 136
2023 09 27 08  22 40 02.043   -38 47 48.79  .75819 1.6258 134.4 22.0 880' 135
2023 09 27 09  22 40 02.098   -38 47 15.80  .75838 1.6258 134.4 22.0 890' 135
2023 09 27 10  22 40 02.156   -38 46 42.77  .75857 1.6258 134.3 22.0 898' 134
2023 09 27 11  22 40 02.218   -38 46 09.69  .75876 1.6259 134.3 22.0 906' 133
2023 09 27 12  22 40 02.284   -38 45 36.56  .75895 1.6259 134.3 22.0 913' 133
2023 09 27 13  22 40 02.353   -38 45 03.39  .75914 1.6259 134.3 22.0 919' 132
2023 09 27 14  22 40 02.425   -38 44 30.17  .75933 1.6259 134.3 22.0 925' 132
2023 09 27 15  22 40 02.501   -38 43 56.90  .75952 1.6259 134.2 22.0 930' 131
2023 09 27 16  22 40 02.581   -38 43 23.59  .75971 1.6260 134.2 22.0 935' 131
2023 09 27 17  22 40 02.664   -38 42 50.23  .75990 1.6260 134.2 22.0 940' 130
2023 09 27 18  22 40 02.751   -38 42 16.83  .76009 1.6260 134.2 22.0 944' 130
2023 09 27 19  22 40 02.842   -38 41 43.38  .76028 1.6260 134.1 22.0 948' 130
2023 09 27 20  22 40 02.936   -38 41 09.89  .76048 1.6261 134.1 22.0 952' 130
2023 09 27 21  22 40 03.033   -38 40 36.35  .76067 1.6261 134.1 22.0 956' 129
2023 09 27 22  22 40 03.134   -38 40 02.76  .76086 1.6261 134.1 22.0 960' 129
2023 09 27 23  22 40 03.239   -38 39 29.13  .76105 1.6261 134.0 22.0 963' 129
2023 09 28 00  22 40 03.347   -38 38 55.45  .76124 1.6262 134.0 22.0 967' 129
2023 09 28 01  22 40 03.459   -38 38 21.72  .76144 1.6262 134.0 22.0 970' 129
2023 09 28 02  22 40 03.575   -38 37 47.95  .76163 1.6262 134.0 22.0 973' 129
2023 09 28 03  22 40 03.694   -38 37 14.14  .76182 1.6262 134.0 22.0 977' 128
2023 09 28 04  22 40 03.816   -38 36 40.28  .76201 1.6263 133.9 22.0 980' 128
2023 09 28 05  22 40 03.943   -38 36 06.37  .76221 1.6263 133.9 22.0 984' 128
2023 09 28 06  22 40 04.072   -38 35 32.42  .76240 1.6263 133.9 22.0 987' 128
2023 09 28 07  22 40 04.206   -38 34 58.43  .76259 1.6263 133.9 22.0 991' 128
2023 09 28 08  22 40 04.343   -38 34 24.39  .76279 1.6264 133.8 22.0 995' 128
2023 09 28 09  22 40 04.483   -38 33 50.30  .76298 1.6264 133.8 22.0 999' 128
2023 09 28 10  22 40 04.627   -38 33 16.17  .76318 1.6264 133.8 22.0  17d 128
2023 09 28 11  22 40 04.775   -38 32 41.99  .76337 1.6264 133.8 22.0  17d 128
2023 09 28 12  22 40 04.926   -38 32 07.77  .76356 1.6265 133.7 22.0  17d 128
2023 09 28 13  22 40 05.081   -38 31 33.50  .76376 1.6265 133.7 22.0  17d 128
2023 09 28 14  22 40 05.240   -38 30 59.19  .76395 1.6265 133.7 22.0  17d 128
2023 09 28 15  22 40 05.402   -38 30 24.84  .76415 1.6266 133.7 22.0  17d 128
2023 09 28 16  22 40 05.567   -38 29 50.44  .76435 1.6266 133.7 22.0  17d 128
2023 09 28 17  22 40 05.736   -38 29 15.99  .76454 1.6266 133.6 22.0  17d 128
2023 09 28 18  22 40 05.909   -38 28 41.50  .76474 1.6266 133.6 22.0  17d 128
2023 09 28 19  22 40 06.086   -38 28 06.97  .76493 1.6267 133.6 22.0  17d 129
2023 09 28 20  22 40 06.266   -38 27 32.39  .76513 1.6267 133.6 22.0  18d 129
2023 09 28 21  22 40 06.449   -38 26 57.77  .76532 1.6267 133.5 22.0  18d 129
2023 09 28 22  22 40 06.636   -38 26 23.10  .76552 1.6267 133.5 22.0  18d 129
2023 09 28 23  22 40 06.827   -38 25 48.39  .76572 1.6268 133.5 22.0  18d 129